Location: Angalakud?ru Malepalle
(16.2514°N, 80.6003°E)
Time: 01:46:32
(UTC+00:00)

Daily predictions for brighter satellites

Satellite Brightness Start Highest point End
(mag) Time Altitude Azimuth Time Altitude Azimuth Time Altitude Azimuth
STARLINK-1183 2.8 00:00:59 10° SW 00:04:03 67° NW 00:07:09 10° NNE
STARLINK-1181 2.8 00:01:27 10° SW 00:04:30 66° NW 00:07:35 10° NNE
Star 48 S/N 10025-3 4.2 00:02:06 10° W 00:04:54 43° NNW 00:06:38 10° ENE
STARLINK-1196 2.8 00:01:54 10° SW 00:04:58 65° NW 00:08:02 10° NNE
STARLINK-1186 2.9 00:02:21 10° SW 00:05:24 63° NW 00:08:28 10° NNE
STARLINK-1185 2.9 00:02:48 10° SW 00:05:52 62° NW 00:08:56 10° NNE
STARLINK-1175 2.9 00:03:15 10° SW 00:06:17 61° NW 00:09:20 10° NNE
STARLINK-1147 2.9 00:03:42 10° SW 00:06:46 60° NW 00:09:49 10° NNE
STARLINK-1146 2.9 00:04:10 10° SW 00:07:13 59° NW 00:10:16 10° NNE
STARLINK-1152 2.9 00:04:37 10° SW 00:07:39 58° NW 00:10:43 10° NNE
STARLINK-1195 2.9 00:05:04 10° SW 00:08:05 57° NW 00:11:07 10° NNE
STARLINK-1137 3.0 00:05:31 10° SW 00:08:34 56° NW 00:11:36 10° NNE
STARLINK-1142 3.0 00:05:59 10° SW 00:09:00 55° NW 00:12:02 10° NNE
Cosmos 2266 Rocket 4.2 00:02:45 10° S 00:09:04 86° E 00:15:29 10° N
STARLINK-1127 3.0 00:06:26 10° SW 00:09:28 54° NW 00:12:30 10° NNE
STARLINK-1184 3.0 00:06:53 10° SW 00:09:55 53° NW 00:12:57 10° NNE
Cosmos 1371 Rocket 4.2 00:06:50 10° S 00:12:09 83° ESE 00:17:31 10° NNE
